Theta_e
300 300 300 302 304 315 315 315 315 313 312 308 304 307 300 298 293 305 309 311 307 298 290 294 292 289 291 291 290 293 291 290 292 292 292 290 290 291 290 290 289 290 290 289 289 289 285 287 286 286 285 286 288 289 293 293 293 293 286 288 287 290 281 280 280 283 284 286 286 287 287 288 287 286 284 285 284 282 280 278 278 281 276 276 275 274 281
299 299 300 300 302 311 315 313 313 312 311 307 306 301 296 297 296 298 307 310 306 295 286 286 289 290 291 291 291 292 290 291 289 291 292 292 290 290 290 290 293 290 292 291 288 291 284 287 288 285 286 287 289 290 292 294 292 292 289 290 291 282 279 283 275 276 279 281 283 284 286 284 282 282 284 284 284 283 281 280 279 279 277 278 276 276 282
298 299 300 300 302 308 314 313 312 311 312 310 305 296 297 297 299 300 302 306 303 292 294 291 290 290 289 289 289 289 289 291 292 292 291 291 291 290 289 291 292 290 292 291 292 292 290 285 288 286 286 289 290 291 292 295 293 294 294 296 294 287 282 283 276 276 274 273 275 278 280 282 283 281 283 285 287 283 284 280 279 277 277 279 275 280 284
299 299 300 300 302 307 313 312 311 311 311 310 305 301 298 293 285 293 296 300 299 297 297 295 292 289 289 288 288 288 288 289 291 292 290 290 291 290 291 289 293 290 290 288 288 289 289 288 286 288 287 288 289 290 292 294 294 294 295 294 293 279 282 285 285 283 281 283 282 284 286 283 284 284 285 285 286 286 285 281 278 281 277 276 283 285 282
299 299 299 300 301 303 310 311 311 311 310 309 305 297 298 296 289 289 285 295 294 292 295 293 293 289 291 286 288 287 288 290 290 292 290 292 292 289 291 291 290 288 290 288 288 289 287 286 288 287 287 286 288 288 291 292 292 294 293 294 288 279 283 285 285 285 285 282 283 287 290 286 287 286 285 287 286 286 285 284 283 282 278 280 284 284 280
299 299 299 300 301 303 305 311 310 310 309 310 304 294 290 288 291 294 295 289 285 288 289 293 292 292 292 287 289 288 288 289 287 288 290 291 293 290 290 292 292 291 290 289 286 287 286 286 285 286 285 285 287 289 289 289 291 293 290 293 290 284 284 284 283 282 282 282 286 287 288 289 288 288 287 286 287 286 285 285 286 283 283 282 283 283 285
299 299 299 300 301 303 304 305 307 307 306 306 301 293 289 290 290 290 293 288 292 292 293 293 292 290 290 287 288 287 288 288 289 288 289 291 290 292 286 289 291 292 292 290 286 287 284 282 284 286 286 287 284 282 285 287 287 288 287 287 282 287 279 281 284 283 283 282 284 287 287 286 286 287 288 288 287 287 287 287 287 286 285 287 285 285 286
298 298 299 300 301 302 303 304 304 305 305 302 294 288 289 290 291 287 290 289 293 293 293 292 291 288 290 286 287 289 289 288 288 288 291 288 289 291 290 289 291 292 291 291 288 289 290 289 285 285 287 282 285 287 286 284 284 285 286 287 284 287 279 286 282 279 280 282 283 284 286 285 284 285 287 287 287 287 288 288 288 287 287 288 287 285 286
298 298 299 300 301 302 302 303 304 303 304 294 291 288 290 289 289 293 291 288 290 293 293 291 289 287 288 285 286 288 290 289 292 288 290 292 289 290 289 291 290 292 291 290 290 292 292 291 291 291 292 287 289 289 283 288 287 285 285 285 286 286 276 281 280 279 276 281 281 282 284 283 282 283 284 285 285 284 285 284 285 285 285 286 284 284 286
298 298 299 300 301 302 302 302 303 302 301 293 291 287 292 292 292 294 293 287 293 290 292 291 290 285 288 288 287 289 290 291 292 290 290 290 292 292 292 291 291 289 290 289 291 293 293 294 294 295 297 296 294 291 292 292 290 287 288 286 287 285 281 279 277 277 274 276 281 281 280 280 278 281 285 286 286 287 288 288 288 289 289 285 284 285 290
298 298 298 299 300 301 301 302 302 301 298 292 290 289 290 290 292 293 293 288 288 291 291 289 288 289 290 289 286 286 288 289 292 289 284 291 292 294 294 293 291 289 290 291 293 295 294 294 293 292 293 293 291 290 293 293 294 292 289 286 282 285 286 280 281 277 271 275 280 280 278 272 279 287 289 288 286 286 284 286 288 289 289 289 291 291 290
298 298 298 298 299 300 301 301 301 301 299 295 295 291 293 292 291 291 291 287 287 291 290 287 289 287 288 287 287 287 288 289 288 291 289 289 291 293 295 294 293 288 293 296 298 297 298 297 296 294 293 291 291 291 293 292 289 289 292 290 283 285 283 278 277 274 273 272 277 278 273 277 284 284 289 291 290 289 288 289 289 289 290 290 290 290 291
298 298 298 298 299 300 300 301 301 301 300 297 295 291 294 294 291 290 290 289 286 289 288 288 284 287 289 288 288 288 289 288 290 292 291 291 289 292 292 292 293 292 297 297 298 297 291 287 287 288 287 289 290 290 288 287 287 287 286 286 288 284 284 277 274 272 272 272 276 270 275 281 282 282 283 287 289 287 287 286 287 288 289 290 290 292 293
297 298 298 298 298 299 300 300 300 300 300 298 294 293 294 294 289 289 287 288 285 286 289 288 287 287 288 288 287 287 290 290 290 293 291 291 292 291 292 293 294 298 298 299 295 293 287 286 285 285 283 282 283 284 284 286 285 283 285 284 285 287 284 282 277 274 275 272 276 277 279 281 285 284 283 287 284 284 285 282 286 290 291 290 290 291 292
297 298 298 298 298 298 299 300 300 300 300 299 295 294 293 294 293 289 287 290 286 285 287 287 287 288 288 287 289 287 288 287 289 287 286 287 289 289 292 293 297 298 298 296 286 286 285 284 281 281 280 281 279 280 279 279 282 283 282 282 284 287 286 282 282 275 274 274 271 270 273 274 282 284 285 290 289 291 289 286 286 291 291 292 291 291 291
297 297 297 297 298 298 298 299 299 299 300 299 295 293 293 295 295 292 290 289 289 285 284 287 287 287 287 286 290 288 287 286 285 285 286 284 286 290 292 291 293 294 291 290 286 288 285 285 281 282 278 280 279 281 276 278 280 283 283 283 285 282 282 282 285 276 274 272 274 272 273 279 280 284 286 289 290 290 287 282 283 286 288 291 291 291 292
296 297 297 297 297 298 298 298 298 299 299 299 293 293 291 295 293 292 289 287 287 284 285 287 288 286 287 286 286 287 286 286 288 287 284 285 286 288 291 290 291 293 289 289 284 285 283 281 284 281 278 280 279 278 279 276 277 280 283 282 280 280 276 278 277 272 275 277 273 275 273 279 281 284 286 288 287 290 287 273 279 284 288 290 290 291 291
296 296 297 297 297 297 298 298 298 298 298 298 295 292 292 295 295 294 289 288 284 282 287 288 286 287 287 285 287 285 286 285 285 287 286 282 284 286 288 290 288 291 292 289 285 285 283 281 282 280 281 281 282 284 279 281 278 279 280 281 276 277 277 277 280 279 278 281 272 270 277 282 281 283 286 286 291 290 280 277 281 285 285 288 289 290 291
295 296 296 297 297 297 297 298 298 298 298 298 296 293 292 295 295 294 290 286 286 283 287 290 290 286 286 286 283 284 286 287 288 286 286 286 285 285 290 289 291 289 286 286 287 285 284 279 282 280 280 279 281 282 282 280 278 275 281 279 275 274 273 272 273 274 277 277 276 276 277 283 287 281 286 288 287 276 279 286 283 285 284 283 288 289 288
295 295 296 296 297 297 297 297 298 298 298 298 296 290 292 294 295 294 289 284 285 284 287 287 288 286 288 286 285 285 284 286 286 289 288 287 285 287 291 287 287 287 286 285 285 284 283 281 283 279 279 280 281 282 278 278 280 281 280 285 283 281 279 278 279 274 272 269 275 271 274 280 287 286 285 286 286 283 283 281 284 283 285 285 284 287 287
294 295 295 296 296 296 297 297 297 297 298 298 296 290 289 293 294 295 294 291 287 285 284 289 289 287 288 286 287 287 286 288 284 288 286 288 290 291 285 286 289 286 286 287 285 283 284 283 280 279 281 284 281 279 279 278 277 280 283 285 281 285 279 274 279 281 277 276 274 278 283 287 289 290 287 287 287 284 286 287 287 285 281 283 286 286 287
294 294 294 295 296 296 296 297 297 297 298 298 296 291 288 291 294 295 294 293 287 284 286 290 290 289 289 290 290 289 289 288 288 288 289 288 283 287 285 287 287 285 286 283 283 279 277 279 280 280 279 279 278 283 278 277 275 278 278 281 278 285 285 285 282 280 279 280 283 286 285 289 289 290 287 292 293 286 287 289 291 289 287 282 284 287 286
294 293 293 294 295 296 296 296 297 297 298 298 295 290 288 290 291 295 293 288 290 290 291 289 291 291 292 291 292 291 290 291 290 289 289 292 286 284 285 288 286 285 284 285 288 287 285 284 281 281 280 281 283 279 277 280 278 277 281 284 281 285 286 282 285 283 287 287 288 283 281 284 287 284 284 288 293 284 283 287 289 287 288 286 288 285 286
293 294 293 294 294 295 295 296 297 297 297 297 295 290 289 290 291 291 289 289 285 283 286 288 285 283 285 286 290 292 292 291 292 292 291 292 288 283 284 284 287 284 284 285 284 285 284 282 283 283 285 283 285 281 281 278 280 281 281 280 281 282 282 284 282 280 284 281 289 285 285 284 287 289 285 282 285 287 284 284 286 284 283 284 284 282 284
293 293 293 294 293 294 295 295 296 297 297 296 294 293 292 290 291 291 287 283 282 281 279 281 283 288 289 291 292 289 291 292 294 293 294 294 291 288 286 287 287 286 285 284 284 285 285 284 281 279 283 281 286 283 283 284 280 281 283 282 281 282 283 285 282 281 285 286 284 285 286 285 285 288 287 288 286 284 283 283 283 283 282 283 283 282 282
293 293 293 293 293 294 294 295 296 296 296 296 294 288 288 288 291 291 290 288 285 284 279 277 282 288 289 290 287 290 293 293 294 294 293 292 293 293 289 286 286 287 286 284 285 285 283 281 276 277 282 283 285 280 278 282 280 281 286 286 286 283 286 282 283 284 284 283 281 281 283 286 284 283 284 285 288 286 282 282 283 283 285 284 282 282 284
292 293 292 293 293 293 293 294 295 296 296 295 291 290 289 289 291 290 286 285 282 279 279 277 281 284 285 285 289 290 291 293 294 294 293 293 293 293 292 290 288 286 286 285 284 284 283 282 282 281 282 282 280 276 276 279 279 281 279 281 282 284 284 281 282 282 283 285 285 283 282 282 285 286 287 284 281 284 284 281 283 283 285 284 285 284 282
292 292 292 292 293 293 293 294 295 295 295 294 291 289 290 288 290 292 291 288 284 279 279 279 279 283 286 285 288 290 291 292 293 293 292 292 292 292 291 290 288 285 284 285 284 283 282 283 280 282 280 280 283 281 278 279 278 275 275 282 284 287 284 284 284 284 284 287 284 287 286 285 281 284 283 281 281 283 285 285 285 284 282 283 284 284 286
292 292 292 292 292 293 293 294 295 295 294 291 285 286 286 287 290 292 292 290 286 281 282 282 283 281 277 282 287 287 289 291 291 291 291 291 291 291 290 290 288 287 286 285 285 284 283 282 284 282 282 284 283 279 280 277 277 282 284 282 282 282 282 287 285 283 283 283 282 281 283 286 284 281 281 280 280 283 284 283 281 282 282 281 282 282 284
292 292 292 292 292 292 293 293 294 294 292 282 283 279 277 281 285 290 294 290 287 283 280 277 276 279 282 283 283 285 287 289 289 290 289 289 289 289 290 289 287 288 286 285 285 283 284 283 282 283 284 285 283 283 280 278 278 280 282 282 283 282 282 283 282 285 286 282 281 280 281 282 280 279 280 280 280 281 283 282 281 282 281 280 281 282 282
291 291 292 292 292 292 293 293 293 293 289 277 277 274 270 271 279 290 293 289 285 283 279 279 276 279 276 282 284 283 285 287 286 287 287 287 287 287 287 289 287 288 284 284 283 284 285 280 283 283 284 286 287 283 280 280 277 275 281 283 284 285 284 284 284 284 283 281 281 280 280 281 280 281 283 281 281 279 280 281 281 281 281 280 280 280 282
291 291 292 292 292 292 292 293 293 291 285 283 277 275 275 279 285 291 292 290 287 282 277 275 275 272 273 279 278 282 284 286 285 285 285 287 285 286 286 287 285 288 287 283 284 282 280 283 283 283 283 287 287 281 281 277 281 281 281 282 282 284 284 283 283 283 283 284 285 285 284 282 281 282 283 281 279 279 280 279 278 278 279 278 277 277 277
291 291 291 292 291 292 292 293 293 292 285 290 294 294 294 294 293 292 290 287 284 278 278 274 272 275 272 270 278 280 283 285 283 284 282 286 283 285 282 284 283 284 291 285 279 279 283 282 283 283 284 286 283 282 279 280 282 282 282 282 282 283 283 282 283 284 285 284 285 284 283 284 284 282 282 280 279 279 278 278 277 276 277 277 278 279 279
291 291 291 291 292 292 292 293 293 293 289 280 278 282 286 293 291 292 288 283 278 278 276 274 271 269 268 276 275 280 285 281 280 282 278 285 283 284 281 282 282 281 282 281 282 280 279 282 280 281 284 281 284 280 278 282 282 280 280 281 283 283 282 282 283 284 284 284 281 284 285 284 282 281 281 280 278 278 279 279 280 280 279 279 278 278 277
291 291 292 292 292 292 292 291 283 280 275 274 272 279 286 292 291 289 287 280 275 275 275 273 275 269 269 270 270 276 282 281 278 281 280 281 284 281 283 280 281 279 279 285 277 278 280 280 284 280 276 283 280 276 279 279 279 280 281 282 282 282 282 282 283 283 282 280 281 282 282 283 284 284 283 282 281 280 281 280 280 283 285 283 281 280 278
291 291 291 291 291 291 286 286 279 276 274 274 276 288 292 291 290 284 283 282 280 276 274 273 274 269 271 267 268 273 283 278 280 277 277 281 280 282 281 280 277 279 282 279 277 279 276 283 281 275 284 279 277 281 280 281 280 281 282 283 281 282 283 285 283 280 279 280 280 281 282 283 284 283 282 281 280 279 279 279 279 280 281 280 281 279 277
291 291 291 288 284 281 274 275 283 277 274 281 288 292 291 288 282 283 283 280 281 282 276 275 272 271 271 270 270 273 279 273 279 276 277 276 277 281 278 278 276 281 275 276 277 276 279 284 278 277 279 277 280 282 281 281 282 282 281 283 283 282 282 282 282 282 281 279 278 278 278 280 281 280 281 280 279 277 277 279 279 280 281 282 281 279 280
290 289 283 280 278 275 274 277 276 279 292 290 291 280 276 278 272 276 274 272 275 281 273 275 271 274 270 270 269 277 278 268 274 274 276 280 277 272 277 276 276 279 269 274 277 282 277 275 276 277 278 281 280 279 278 279 280 281 282 282 283 283 283 281 282 282 281 279 279 278 277 277 278 278 278 280 278 277 279 281 281 281 281 281 282 281 279
288 282 280 276 273 272 272 274 286 291 284 282 279 272 270 271 269 266 267 273 275 271 273 273 271 274 272 271 269 279 277 273 269 269 272 279 275 270 277 272 277 275 269 273 274 284 273 274 276 276 275 277 278 279 276 276 276 277 280 281 283 282 281 280 282 283 282 283 283 282 282 282 280 281 279 280 280 279 279 279 278 279 279 280 280 279 277
277 277 276 274 269 273 282 286 292 286 283 272 268 265 264 269 268 261 271 268 268 269 272 268 275 273 274 274 274 271 280 274 269 270 273 274 280 270 274 271 273 272 266 272 273 280 274 272 273 273 273 277 277 276 275 275 276 276 276 278 277 277 278 281 280 281 283 283 284 284 283 284 284 284 281 279 280 279 279 277 277 278 277 278 278 276 276
275 271 273 273 276 275 276 275 276 272 269 264 263 264 265 264 263 265 269 264 265 265 270 271 267 267 272 272 273 271 278 277 272 273 272 271 278 275 269 267 277 267 264 268 272 269 273 274 273 273 274 278 276 274 274 273 276 275 274 274 274 275 276 276 278 278 278 280 279 278 278 280 280 281 281 281 280 280 280 280 279 278 276 275 274 274 274
275 272 272 275 277 276 277 276 270 269 267 266 263 259 263 261 261 256 258 263 266 268 264 264 267 269 268 274 273 276 274 273 274 276 274 271 278 270 268 267 266 264 265 271 268 264 271 268 270 271 271 272 272 270 273 273 272 274 275 274 274 275 273 275 278 277 277 282 282 281 279 278 278 279 278 277 277 277 276 276 276 274 275 275 273 272 271
287 283 280 274 275 273 273 269 267 267 263 262 260 257 258 255 257 261 261 262 258 260 262 267 266 276 273 271 270 269 271 280 276 272 267 264 276 270 266 265 266 263 267 270 268 270 269 266 268 271 271 268 268 269 272 273 272 273 274 272 272 274 273 274 275 276 274 274 277 277 276 276 274 274 274 275 275 275 274 274 275 274 272 271 270 269 268
280 278 273 270 271 269 271 263 272 267 261 261 259 256 259 257 257 257 256 258 258 263 265 271 269 273 269 270 273 273 270 273 276 266 262 265 268 266 270 265 265 269 268 260 265 268 269 270 271 271 270 267 264 265 268 268 269 269 270 270 268 269 270 270 272 273 273 272 272 272 272 271 270 269 269 269 271 274 272 271 268 267 266 266 266 266 266
272 271 270 268 265 268 269 262 270 264 261 260 265 255 257 257 259 257 264 265 262 261 265 267 269 270 269 268 267 266 274 265 270 268 264 267 262 264 265 262 264 257 257 260 263 263 264 264 271 269 267 266 268 267 266 268 269 274 274 270 271 271 270 271 273 273 274 270 269 268 268 266 267 266 266 264 262 264 266 266 263 264 264 264 265 266 265
270 268 268 266 265 266 262 260 262 257 262 264 259 258 259 262 261 259 264 259 260 262 268 268 266 269 268 267 272 271 267 262 265 263 265 261 262 261 265 263 261 258 260 263 262 260 265 269 269 268 269 269 269 268 265 265 266 267 272 274 277 273 270 270 271 269 268 266 264 266 265 264 263 263 263 261 259 260 259 259 260 260 261 263 265 264 263
273 272 268 267 265 266 262 256 258 260 263 262 261 263 265 265 262 262 262 262 263 264 265 264 267 269 270 267 268 267 261 261 262 263 265 255 257 259 264 262 260 263 262 260 261 258 256 261 262 263 265 265 265 265 265 265 263 266 272 271 269 268 264 265 265 268 263 261 262 262 261 260 259 258 258 261 260 257 255 255 256 258 259 260 260 259 259
269 271 267 262 262 264 262 261 256 257 258 260 260 260 260 261 264 264 261 259 261 265 268 267 267 266 265 264 264 263 264 262 265 263 262 262 264 256 256 260 257 261 259 261 261 261 261 264 267 270 269 267 266 266 263 264 263 262 262 264 260 259 259 262 262 259 259 260 260 258 256 256 253 255 256 258 257 255 252 253 254 253 254 255 255 255 256
271 268 267 263 263 261 261 261 262 264 261 257 256 259 262 265 262 260 260 257 262 266 266 266 262 265 260 263 261 266 262 263 263 264 266 258 258 258 261 256 256 256 256 260 265 265 265 271 271 271 270 266 262 261 257 253 255 256 257 258 257 255 256 255 255 254 251 251 252 253 253 253 251 252 253 254 255 255 255 252 252 251 251 252 253 254 255
270 269 266 261 260 259 257 257 263 261 253 255 258 260 256 259 258 258 257 257 257 262 270 273 271 267 262 262 258 259 257 259 263 263 258 256 258 257 256 249 252 260 259 257 258 262 267 267 266 266 261 256 253 251 251 252 253 253 252 252 251 252 252 253 253 253 251 250 250 250 250 250 251 251 252 254 254 254 253 251 250 250 250 249 251 251 252
269 267 262 259 259 259 258 258 260 256 256 260 258 258 256 259 258 258 259 255 258 264 262 263 265 258 260 260 260 257 261 264 262 258 260 261 261 257 257 256 254 259 264 266 265 260 252 246 250 253 251 249 250 248 248 250 251 251 250 250 250 251 251 250 250 251 251 250 248 252 250 249 249 249 251 251 251 252 251 253 251 248 248 248 248 249 249
266 263 262 258 255 252 253 256 255 254 255 254 252 254 256 255 255 254 256 255 260 266 264 260 256 257 257 257 262 262 260 258 255 259 258 253 258 260 257 261 266 265 263 262 256 250 249 246 246 246 246 248 248 246 247 247 247 247 248 248 248 249 249 249 251 250 249 249 249 247 247 247 247 247 249 250 249 251 252 252 252 251 249 248 248 247 247
Wind_Speed
27 33 34 34 41 19 27 28 35 37 39 19 14 11 14 12 9 8 22 22 26 20 13 13 12 7 4 3 2 0 6 11 15 17 11 8 3 8 8 14 12 10 12 9 12 15 6 12 14 7 4 5 5 9 17 15 16 9 1 5 4 8 5 6 1 2 2 3 2 1 1 1 2 2 0 2 6 3 4 3 6 8 2 2 2 5 11
26 31 29 34 38 11 33 30 26 36 33 18 13 12 8 11 17 15 14 23 23 22 19 18 14 8 5 6 5 2 4 12 12 12 15 9 9 13 9 10 17 13 11 18 17 17 7 7 10 2 3 4 6 11 16 22 13 15 11 15 10 4 2 9 4 2 2 3 3 2 1 2 1 2 2 2 1 2 1 3 2 2 8 7 6 14 11
25 27 28 34 35 14 35 40 30 31 23 18 14 11 9 12 6 9 11 15 17 18 13 22 18 13 15 12 8 6 1 9 17 19 18 5 8 9 10 14 12 11 16 16 17 20 15 7 7 3 4 5 1 13 16 23 15 14 11 10 9 5 6 10 7 9 8 6 11 15 8 7 2 2 4 5 9 7 4 4 2 6 6 9 7 15 3
24 25 27 31 29 16 32 39 43 30 19 13 11 13 14 11 13 9 13 10 6 0 3 8 14 18 20 16 6 4 7 4 5 13 6 1 6 2 8 4 14 11 15 12 11 15 0 7 8 10 8 4 2 6 16 20 16 12 15 12 12 4 3 8 13 15 16 15 4 4 11 4 11 8 9 6 5 7 5 3 4 15 3 5 16 17 3
23 23 26 26 24 25 15 37 42 32 21 11 10 3 9 4 11 11 7 8 5 4 1 10 11 13 14 13 7 10 9 8 5 7 7 6 10 4 9 10 13 9 19 14 12 16 7 3 11 11 11 1 2 3 11 11 5 12 10 13 7 4 6 12 12 11 5 3 5 12 19 16 16 13 12 12 9 8 10 12 16 7 4 15 9 3 4
21 23 26 25 24 20 16 24 29 31 21 17 3 9 2 7 5 11 11 12 12 10 7 13 14 11 17 6 5 10 15 12 12 1 2 6 10 13 0 15 17 24 22 18 13 13 7 6 10 4 1 6 1 6 2 5 4 13 6 10 8 7 10 5 4 3 3 4 7 10 10 13 12 14 14 13 13 11 17 20 8 5 11 19 3 5 13
21 23 24 25 25 26 21 14 19 19 13 9 3 12 2 2 4 3 1 4 19 19 21 20 21 18 16 3 8 9 16 17 11 5 6 7 8 12 13 19 22 25 21 18 10 17 11 6 4 9 9 11 8 4 3 2 1 3 4 5 0 6 4 4 8 6 3 3 7 9 12 6 4 8 13 16 18 22 22 17 11 10 14 15 8 11 17
20 22 24 26 27 27 27 20 13 13 14 12 9 3 6 9 14 8 2 3 11 7 10 16 22 19 18 7 8 11 19 20 8 1 9 11 10 6 19 19 21 22 22 20 19 21 22 22 15 3 12 6 5 11 8 8 2 1 6 5 2 4 5 8 4 4 4 5 2 6 10 8 7 8 12 16 18 19 20 17 16 16 18 19 11 11 22
19 21 22 26 27 27 28 25 18 11 5 8 6 3 4 2 2 4 13 11 9 13 18 18 19 14 12 7 6 7 14 17 12 4 1 15 13 11 23 21 19 17 20 16 20 23 19 18 22 21 21 16 11 12 4 8 10 5 4 3 0 3 2 1 5 6 5 2 6 5 2 1 6 9 14 19 19 15 11 9 5 7 16 10 8 14 20
20 21 22 26 28 28 29 29 25 15 10 9 5 7 1 2 1 4 6 8 13 17 14 11 14 14 14 10 7 8 18 13 10 7 3 3 2 9 15 17 18 11 18 19 19 17 15 19 17 21 20 16 11 4 12 18 17 9 11 5 8 6 6 6 4 6 6 3 7 8 4 1 5 13 26 20 11 14 8 10 10 16 15 10 14 22 10
20 21 22 24 27 29 29 31 29 23 10 7 6 5 2 2 9 7 4 13 6 10 15 14 19 11 14 7 3 4 6 6 9 17 2 2 0 10 22 20 17 13 18 12 4 9 10 12 10 8 11 10 6 5 13 14 17 16 14 5 3 6 10 8 6 8 3 1 8 6 6 4 18 9 7 13 17 12 8 14 18 17 9 14 16 16 1
21 21 21 23 26 27 28 28 28 26 16 8 6 7 3 1 2 5 9 14 11 12 13 16 15 3 10 4 5 4 10 11 4 2 9 2 1 7 19 17 17 12 2 14 21 20 18 15 16 15 14 12 8 8 15 14 2 3 5 13 7 9 6 5 2 6 4 2 7 8 8 19 6 1 8 17 14 18 25 23 15 14 15 15 17 18 12
21 22 22 22 24 26 27 26 26 25 18 9 11 10 6 2 3 5 7 11 12 16 14 11 2 4 7 7 6 5 6 4 5 9 5 10 4 3 1 6 13 6 14 19 20 20 14 12 10 11 7 9 9 12 12 8 3 5 5 2 11 10 9 5 2 5 4 3 7 6 18 4 4 4 0 2 8 7 8 10 8 10 15 20 23 25 16
21 21 22 22 23 25 26 25 23 23 22 14 12 8 8 8 5 6 4 9 5 2 8 10 7 10 11 9 9 5 8 7 3 7 5 3 8 5 1 1 5 17 14 19 17 17 9 5 8 7 2 4 3 4 2 4 6 3 3 4 1 13 8 7 4 1 8 5 9 11 6 10 9 7 3 7 8 8 12 10 17 20 17 16 18 19 11
20 21 21 21 22 23 24 25 22 22 21 16 9 10 11 10 6 5 2 7 10 2 6 15 10 11 11 7 12 9 8 5 9 3 1 1 6 1 1 1 8 13 14 16 3 5 6 6 5 8 1 7 7 7 2 1 1 3 2 1 3 6 12 6 10 3 6 8 2 2 5 11 17 2 6 8 8 10 9 8 13 9 14 13 16 18 13
19 20 20 21 21 21 22 23 23 24 22 17 11 8 9 9 4 3 6 7 11 10 1 4 3 5 9 5 13 14 9 6 5 4 4 5 2 2 3 2 2 3 4 6 4 8 6 9 8 11 8 9 2 5 2 2 1 1 6 3 6 5 4 5 10 4 5 3 8 7 9 16 3 10 10 11 11 11 8 4 15 3 10 12 14 15 13
17 19 19 20 20 20 21 21 21 22 23 20 9 8 9 11 7 4 6 6 5 4 5 3 1 2 8 6 4 5 5 7 7 9 5 4 2 1 3 2 2 5 2 7 2 5 5 5 7 6 1 4 6 5 4 2 4 0 3 6 8 5 1 4 4 5 7 8 5 9 5 8 4 7 8 12 6 13 9 2 12 4 11 12 13 15 16
16 17 18 19 19 20 20 20 21 22 19 17 9 8 6 10 9 2 6 7 8 3 3 5 2 4 6 4 7 1 4 6 5 6 7 1 3 2 3 1 2 3 1 9 4 7 5 6 12 7 8 3 2 8 10 9 7 8 8 9 5 3 0 3 13 9 7 9 6 3 7 4 3 7 7 9 14 13 9 17 7 6 7 8 9 13 14
15 16 16 18 18 19 19 19 20 20 20 16 4 5 9 10 10 7 7 6 7 5 3 2 1 3 1 1 3 3 1 5 7 9 8 5 2 3 6 0 3 3 5 5 6 6 8 2 1 4 7 1 1 9 5 8 8 1 7 7 1 1 3 2 3 5 10 9 7 9 7 7 12 1 10 11 10 4 15 6 3 9 7 4 11 12 10
14 15 16 17 17 18 18 19 19 18 18 17 9 6 2 8 9 7 4 8 5 8 4 6 3 6 4 3 5 5 3 3 1 9 9 9 2 6 8 4 5 4 2 3 6 2 5 7 7 2 3 7 6 4 3 2 3 11 6 11 12 11 9 9 10 4 4 2 7 1 11 5 11 12 3 6 10 8 5 3 1 4 8 9 6 8 8
13 14 15 15 16 16 17 18 18 17 17 15 8 4 7 9 10 10 7 5 10 12 5 4 3 8 4 8 7 2 2 7 4 8 3 6 7 7 12 10 11 5 8 8 12 7 5 8 6 3 2 7 5 3 8 6 2 6 5 9 6 8 7 3 7 7 9 8 8 11 7 9 13 19 12 9 8 5 9 8 6 4 3 5 8 7 8
11 12 13 14 15 15 15 16 17 17 17 14 10 4 7 7 6 7 8 10 9 7 5 2 1 6 6 4 3 3 4 4 1 1 8 9 5 1 1 5 5 2 2 3 6 2 2 3 2 5 5 2 1 9 6 8 5 3 1 4 3 10 14 11 12 4 7 9 12 9 5 15 13 9 6 15 16 6 9 8 8 7 7 4 5 9 8
9 10 12 12 13 14 14 14 15 16 16 15 9 7 6 6 6 7 7 13 8 7 4 3 1 4 2 3 2 1 1 0 2 2 4 8 5 4 3 6 4 0 2 1 6 7 6 7 5 5 4 2 10 4 1 4 5 4 7 7 2 4 6 2 4 7 8 6 6 2 2 1 6 3 2 8 14 5 4 6 6 5 6 10 8 7 8
8 9 10 11 12 13 13 13 14 14 14 14 8 5 5 4 6 5 5 5 4 7 4 6 4 5 5 5 5 7 6 5 4 4 3 1 9 2 2 1 1 3 2 0 2 6 6 3 4 3 7 5 7 7 10 6 7 6 5 2 3 3 4 4 5 1 7 10 12 7 5 4 8 8 0 1 0 7 5 4 5 4 4 5 3 3 5
6 7 9 10 11 11 12 13 13 14 15 13 8 6 4 5 6 5 3 5 2 4 5 2 7 4 3 4 4 2 4 3 4 3 5 6 4 8 7 2 1 4 5 1 0 5 4 6 1 1 7 4 8 8 4 9 5 5 8 6 3 4 3 7 5 5 13 14 5 8 8 4 4 6 5 2 3 3 4 4 3 3 4 4 4 4 4
6 7 8 8 9 10 11 12 12 13 14 15 11 5 5 4 5 4 4 5 3 4 6 4 3 4 4 4 6 4 6 7 6 9 8 4 4 11 11 2 5 4 4 2 5 6 4 5 3 1 8 5 2 3 6 5 4 4 11 12 8 4 10 8 10 11 6 4 2 1 5 2 4 4 4 4 7 8 3 3 4 5 5 3 2 1 4
6 7 6 7 7 8 9 10 11 12 13 12 7 6 5 3 6 8 5 2 3 5 4 4 2 2 3 7 4 4 5 6 7 8 9 8 9 5 7 7 7 4 6 5 4 4 3 2 3 2 1 2 4 2 3 2 4 5 5 3 3 8 11 2 5 7 9 14 9 7 4 4 8 9 11 5 3 5 6 3 4 5 6 5 5 2 1
6 6 5 7 7 7 8 10 11 11 10 9 7 6 6 6 5 4 4 4 2 4 5 5 4 3 2 5 5 5 7 6 6 8 8 8 8 8 7 7 5 4 2 4 3 3 2 5 2 1 1 1 5 1 1 1 4 2 1 7 6 11 8 9 10 11 14 9 6 10 4 0 2 6 5 3 4 6 8 9 8 6 4 5 6 4 1
3 3 4 5 7 7 7 9 9 9 8 6 5 6 6 5 6 7 6 5 4 6 7 5 3 5 2 0 5 5 6 5 6 7 8 7 8 8 8 6 6 2 4 4 4 4 4 2 2 4 2 2 5 3 3 2 3 10 8 5 5 2 4 7 5 3 2 0 2 4 3 6 3 2 3 3 4 5 5 3 2 3 4 3 3 3 4
3 3 3 4 6 6 7 8 7 6 5 5 5 5 5 3 6 7 7 5 3 2 6 4 5 1 2 3 2 2 4 5 5 7 7 7 7 7 5 6 6 4 4 3 3 5 2 4 1 1 2 3 3 2 4 3 3 6 0 5 4 4 3 4 3 3 1 1 3 2 5 6 3 3 1 1 1 3 5 4 2 2 0 1 1 0 1
3 2 5 3 5 6 7 8 6 7 8 4 4 4 3 2 3 5 7 5 3 5 3 5 4 2 3 0 4 5 4 4 6 7 6 5 5 4 2 5 3 2 4 3 4 1 2 2 2 0 1 2 1 4 5 5 4 2 5 6 7 6 5 3 1 5 8 5 5 5 5 5 3 4 5 3 2 2 3 1 1 3 4 3 2 1 0
4 2 5 4 6 7 8 9 9 8 7 7 4 2 2 1 0 4 5 4 3 7 5 5 3 3 1 1 2 1 2 2 2 2 2 2 4 3 6 4 2 3 3 4 1 3 1 1 3 2 3 0 4 2 2 2 8 6 2 5 4 5 5 6 4 4 6 9 9 9 7 2 0 4 4 2 2 3 4 3 2 3 3 4 3 2 1
4 3 1 5 3 6 10 10 11 8 5 8 13 11 8 8 4 6 6 4 7 2 2 5 5 1 2 4 1 4 0 2 4 2 2 1 1 1 3 2 3 3 4 4 2 2 0 2 1 3 1 2 3 2 2 8 5 3 6 5 4 3 5 3 5 6 8 4 1 6 4 4 4 2 7 6 4 5 5 4 1 2 3 3 2 1 0
5 8 6 3 4 7 11 11 10 8 10 6 4 5 5 10 9 12 5 5 3 1 3 3 3 4 2 2 5 1 3 2 0 1 2 3 2 3 1 3 2 2 2 3 1 4 2 2 3 3 2 1 0 3 5 5 7 4 1 1 2 5 5 5 5 7 4 1 4 1 3 4 6 8 7 6 4 1 2 3 4 4 2 4 3 3 1
6 6 6 6 7 9 11 8 6 6 3 0 0 4 1 13 10 9 7 2 4 2 2 2 2 4 4 4 1 1 0 3 1 0 2 2 3 2 1 3 1 3 2 3 3 2 2 3 2 4 4 2 3 4 5 4 5 5 4 3 1 6 6 6 1 2 3 4 5 5 5 7 9 5 6 5 7 6 7 5 3 2 1 3 2 2 4
6 7 8 9 12 11 4 6 5 4 5 1 1 4 12 9 10 6 6 5 4 2 2 1 3 2 3 4 2 2 1 3 1 3 1 1 3 2 2 1 2 2 1 3 3 2 2 2 4 2 2 4 8 6 2 8 8 6 6 6 5 5 4 6 7 6 4 6 7 5 6 3 5 5 3 2 2 1 1 2 1 1 1 3 4 3 2
10 11 13 10 6 6 4 1 1 2 2 4 6 10 8 5 3 4 6 4 4 2 3 1 4 1 3 5 1 3 3 3 1 3 1 3 3 1 3 1 3 2 4 1 1 3 3 2 4 3 5 8 7 3 7 8 8 7 4 4 6 3 5 6 9 10 8 7 7 5 3 1 1 1 1 2 2 1 1 3 5 5 5 6 6 4 6
13 10 5 4 3 3 2 2 1 2 7 8 5 5 7 6 3 3 4 5 3 4 4 4 1 0 3 5 1 5 4 2 3 3 1 1 2 3 1 2 4 2 2 3 4 4 3 2 2 5 6 5 3 1 3 5 5 5 5 2 3 3 4 6 7 9 7 4 1 0 1 1 3 3 3 5 4 5 8 7 5 5 4 4 6 5 4
9 3 4 3 3 1 2 3 1 8 5 3 5 2 2 1 3 4 2 1 2 3 3 3 2 1 2 2 0 3 3 4 3 1 3 3 3 2 2 2 2 4 3 1 5 3 1 2 2 2 7 4 5 2 3 4 3 4 6 6 5 4 3 4 6 8 9 7 8 8 9 8 7 8 7 7 6 6 4 4 4 5 6 6 6 5 4
4 3 1 1 2 1 3 6 14 4 3 2 3 4 1 2 3 1 0 3 2 2 2 2 2 2 2 4 4 0 0 4 3 2 3 1 0 4 1 3 4 4 3 2 3 5 5 5 3 3 10 6 7 2 5 4 5 4 4 5 4 3 4 6 4 4 5 5 5 5 6 6 6 7 7 8 8 8 8 6 7 7 6 8 5 3 6
1 2 2 1 2 1 1 3 5 5 2 2 2 2 1 3 1 0 2 0 1 1 1 3 3 3 1 2 3 3 2 4 0 2 3 2 3 5 5 1 3 4 3 2 2 5 1 2 3 7 10 6 1 4 5 4 4 4 5 4 2 4 5 5 4 4 3 3 4 3 4 5 5 5 6 8 9 10 9 8 7 7 6 5 6 5 2
2 2 3 4 3 1 0 4 2 1 2 1 3 0 0 2 1 5 1 3 3 1 2 2 1 4 3 4 5 2 0 1 1 1 2 0 2 4 3 1 3 4 2 3 2 3 1 2 3 5 6 2 2 3 5 5 4 5 5 4 3 2 3 4 5 4 3 6 6 6 5 5 5 4 2 2 3 4 3 3 4 4 5 5 4 4 4
12 9 6 4 2 3 1 2 2 2 2 1 3 1 1 2 2 3 2 1 2 4 4 1 1 0 2 2 3 0 3 0 1 0 2 2 0 4 2 0 1 1 3 2 4 2 3 4 4 8 4 3 4 5 5 5 5 5 5 3 4 5 4 5 6 6 6 6 6 4 1 1 3 2 1 2 3 1 2 3 4 2 2 2 3 2 3
4 4 5 2 2 4 2 2 2 5 3 0 3 3 2 2 3 2 1 3 2 1 3 5 4 5 2 1 5 1 3 2 2 3 3 2 3 1 1 1 3 5 4 4 0 2 4 2 6 5 4 3 2 3 4 4 5 4 3 5 4 2 2 2 0 1 3 1 0 0 1 2 4 2 2 2 1 5 1 0 2 2 2 2 2 3 3
3 3 2 2 2 3 3 1 1 5 3 2 3 3 4 7 7 4 6 5 4 3 0 3 5 5 4 2 4 3 1 3 3 4 2 2 4 1 3 3 2 3 4 2 0 1 3 2 7 4 4 3 4 4 4 4 5 6 5 1 1 4 4 4 6 5 1 1 1 1 2 1 2 2 3 3 4 4 2 0 3 3 3 3 2 2 3
2 3 2 3 0 2 2 1 2 1 3 2 3 7 6 6 6 6 5 1 2 2 6 6 3 4 3 1 5 3 1 2 3 1 1 2 4 2 4 0 4 3 1 1 2 4 6 7 5 5 6 6 5 4 3 4 2 0 4 4 7 5 4 4 1 1 1 2 2 3 3 3 3 2 1 2 3 4 4 3 3 3 3 3 3 3 4
1 1 2 1 2 1 2 2 3 4 2 3 5 6 5 6 4 3 1 1 1 2 3 1 4 1 5 1 2 2 2 1 2 3 4 3 2 2 3 5 0 2 4 3 2 3 3 6 6 6 5 4 4 4 5 3 2 5 5 2 0 2 2 1 1 1 1 3 3 3 3 3 3 2 1 1 2 4 3 3 4 4 4 2 3 3 4
2 1 3 2 2 1 3 4 1 1 1 0 1 1 1 2 4 1 2 2 1 0 4 3 2 0 2 3 3 3 1 0 1 4 2 3 1 7 1 1 1 1 2 6 6 5 4 4 6 6 8 6 4 1 1 1 0 2 2 1 2 2 2 1 1 3 3 2 2 2 4 3 2 2 1 1 0 1 3 4 4 4 3 3 2 3 3
1 1 1 2 0 2 0 1 3 6 2 5 1 1 3 6 3 1 4 3 1 1 3 4 2 2 0 2 3 0 1 2 4 4 2 4 3 3 2 2 2 1 5 6 7 6 7 9 9 9 4 3 5 4 4 4 3 2 2 1 2 2 1 3 4 3 4 4 3 3 3 2 2 2 1 1 0 1 3 4 4 3 2 1 2 3 3
2 0 1 2 2 2 1 1 3 0 3 2 1 2 1 5 3 1 4 2 2 0 0 1 1 5 2 2 1 1 1 2 3 0 6 1 2 1 4 2 3 5 4 3 5 8 5 2 3 2 4 6 6 6 5 5 5 4 3 3 3 4 4 3 4 5 5 4 3 3 3 3 4 3 2 1 1 3 4 4 2 2 4 2 1 2 2
2 2 2 1 2 3 4 4 7 4 1 2 2 0 1 2 1 1 4 1 2 3 3 2 1 2 0 2 1 1 3 2 3 2 6 4 2 4 3 3 5 5 8 5 2 3 6 8 5 2 4 5 3 3 4 3 4 5 4 5 4 3 3 4 4 4 4 5 3 5 5 4 2 0 2 1 1 2 2 1 0 1 3 4 2 2 4
1 1 1 0 2 2 2 1 3 3 2 1 2 1 1 1 2 3 3 1 1 6 2 1 3 2 2 1 3 2 1 5 0 1 1 4 2 6 5 7 7 3 3 3 3 5 5 5 4 4 3 3 2 2 2 2 2 5 6 6 6 5 4 4 4 3 2 3 4 4 2 2 3 2 0 1 1 1 1 3 3 3 4 4 5 4 3
Wind_Direction
350 346 347 346 346 179 160 155 153 149 146 143 151 135 145 147 118 100 151 159 147 139 141 159 179 176 175 47 24 47 144 156 166 159 178 168 154 140 166 168 140 177 151 159 157 162 172 172 194 174 161 190 194 184 163 152 164 148 127 91 202 86 107 101 325 347 328 310 339 87 61 92 289 284 129 142 209 180 177 172 181 180 218 204 277 260 259
352 349 349 346 341 253 160 153 149 152 157 146 134 129 115 122 136 142 171 164 158 146 166 175 169 153 150 164 173 40 154 154 163 169 179 162 177 161 152 170 163 156 163 153 169 172 151 213 178 146 173 188 192 166 169 161 171 170 196 172 199 133 272 118 104 35 10 337 339 334 325 63 177 183 225 177 139 83 172 107 111 214 218 171 174 242 264
356 354 352 349 345 302 165 153 154 157 157 139 139 126 137 115 89 113 154 174 172 163 169 160 166 169 166 171 177 164 137 190 176 168 177 167 167 148 173 165 154 150 157 167 164 176 174 150 209 105 173 179 102 183 171 179 175 194 183 172 156 163 175 143 145 164 180 196 205 210 190 181 228 206 195 196 185 164 153 220 216 219 243 162 202 246 255
360 359 357 351 348 340 170 157 151 158 149 136 119 139 134 156 136 155 150 167 182 220 5 166 164 159 164 172 185 148 147 175 219 163 174 218 140 135 122 107 133 137 149 153 158 172 16 134 177 168 168 161 235 194 188 182 187 177 156 150 146 160 162 182 184 186 201 208 181 100 122 120 193 208 178 211 206 196 179 112 173 220 165 185 228 232 39
3 2 358 353 350 2 161 155 150 150 159 164 134 64 114 139 133 156 131 113 180 90 25 151 151 168 165 166 168 172 168 156 176 199 158 211 146 123 143 147 138 163 148 158 166 176 140 38 141 180 156 237 173 4 183 200 177 145 145 162 119 106 173 209 203 207 212 147 171 178 160 181 201 176 195 194 183 181 190 198 224 105 91 251 236 50 260
6 2 1 355 355 11 38 151 150 152 163 184 172 119 19 131 165 149 163 150 167 158 165 161 165 168 174 163 139 176 157 167 170 194 285 163 158 130 297 164 157 161 165 153 158 168 163 137 160 128 99 107 153 106 2 177 216 162 162 182 162 156 200 207 147 231 179 192 146 164 175 191 188 186 189 185 193 188 206 222 214 126 202 239 119 210 245
8 7 1 357 357 13 36 82 134 140 144 162 211 124 296 77 79 162 24 120 169 177 161 166 170 169 179 137 153 167 168 176 173 156 154 157 179 156 158 176 165 166 159 153 152 162 151 196 160 163 168 158 136 106 82 286 57 174 132 179 214 149 223 168 178 191 170 222 162 170 174 189 164 189 199 197 190 203 211 220 209 198 237 249 237 253 259
15 9 5 2 7 17 24 37 68 110 120 129 91 29 141 151 154 157 15 75 149 76 138 161 163 171 178 154 198 173 174 172 156 198 162 163 185 178 161 170 168 164 162 159 163 177 180 170 166 192 131 148 167 165 172 145 71 84 154 163 285 145 248 134 117 136 241 232 120 183 182 165 195 211 208 207 209 213 211 210 212 213 241 245 253 268 266
18 15 11 9 15 19 25 32 41 46 165 86 102 65 40 118 349 159 137 118 151 129 152 162 169 165 186 180 200 166 186 176 165 159 256 178 170 178 169 160 158 163 165 170 175 180 177 159 163 162 153 169 191 150 242 151 146 147 138 159 81 138 209 48 116 165 250 201 137 186 165 179 203 219 217 218 209 211 217 220 200 198 230 236 251 257 251
22 20 16 13 21 23 27 33 34 36 71 102 107 86 242 89 288 89 89 92 148 148 149 160 155 188 189 176 180 180 186 169 150 134 20 30 158 159 142 151 141 168 167 182 183 178 164 171 163 164 172 167 161 141 149 153 156 165 171 162 146 159 128 147 142 159 230 276 137 136 105 93 317 252 226 209 200 206 203 223 210 212 213 213 226 238 236
25 24 19 17 22 27 29 35 35 32 53 72 98 93 69 98 128 109 59 117 122 149 156 164 178 180 165 158 106 49 148 168 177 158 209 93 50 151 141 150 153 164 186 182 138 112 93 83 82 53 75 104 115 106 149 161 164 165 157 136 157 144 160 175 172 171 205 143 140 109 116 173 228 247 119 158 194 186 194 221 218 224 198 223 230 248 266
28 28 27 21 24 31 33 38 40 39 50 52 92 85 56 330 43 79 127 128 138 154 168 177 172 91 150 168 125 143 163 176 197 116 137 98 111 170 147 157 145 173 174 114 109 104 93 77 68 61 53 58 60 122 145 157 133 15 161 156 149 153 134 143 159 104 151 172 111 130 194 225 237 42 162 176 180 184 205 219 217 218 224 247 264 262 247
26 31 32 28 26 32 37 40 42 40 42 46 64 62 7 325 115 121 112 127 147 160 168 172 52 108 127 121 113 117 117 92 106 91 75 119 113 120 137 157 162 141 150 121 117 108 103 103 73 88 68 65 53 62 44 45 27 1 28 38 146 155 150 134 54 122 63 98 159 163 226 234 331 269 358 219 172 194 195 251 253 236 218 222 235 242 242
30 31 33 31 28 30 37 40 41 45 43 46 61 47 29 15 90 87 100 122 104 25 135 113 125 136 137 141 123 120 108 100 90 97 99 358 122 118 329 39 149 141 139 117 104 107 83 74 108 79 15 30 33 80 328 38 32 42 4 348 35 158 124 146 154 216 156 194 180 224 330 325 266 242 156 158 155 142 180 213 241 226 222 217 236 250 246
30 32 34 35 31 29 34 37 39 41 43 43 66 49 33 22 30 109 141 94 131 111 141 166 165 161 137 136 130 131 117 162 112 44 347 18 62 276 212 302 144 139 137 118 71 45 132 118 110 125 114 131 161 189 0 138 297 52 47 318 116 176 158 203 137 226 130 134 209 330 281 258 246 165 185 157 167 169 165 178 266 222 219 212 226 242 242
28 31 34 36 35 32 30 33 36 38 38 36 52 50 39 16 351 63 97 115 128 143 247 34 40 131 127 146 155 148 156 145 130 110 51 14 39 42 357 23 37 27 43 71 98 113 124 125 148 144 171 176 164 98 246 132 359 343 26 59 104 24 69 147 162 154 91 128 173 203 205 239 112 160 174 180 164 146 126 102 256 270 175 204 207 232 239
30 32 35 36 38 35 33 32 32 38 38 35 43 30 37 3 17 12 91 62 72 90 28 359 324 120 104 71 70 113 143 142 153 129 118 114 143 108 97 352 357 53 30 91 55 98 99 91 140 128 91 136 136 182 104 105 135 47 347 41 74 100 36 113 124 154 190 171 172 224 212 247 218 179 187 173 142 113 97 66 254 215 193 191 189 210 224
32 33 34 36 36 38 36 32 34 36 37 30 36 42 18 359 3 348 58 99 109 69 4 12 55 133 154 176 143 173 90 94 64 76 87 205 90 100 164 102 64 340 347 121 148 113 125 130 157 162 164 241 138 122 176 167 174 183 174 160 141 137 174 149 197 182 178 173 235 321 286 259 217 199 161 144 140 130 141 211 226 213 198 187 169 207 222
35 35 36 37 35 38 38 37 34 34 35 34 23 28 20 3 359 14 104 80 90 109 328 316 23 86 58 38 105 152 181 153 144 111 131 106 241 207 128 161 122 135 357 128 113 140 140 180 32 120 126 225 186 189 131 158 192 21 120 101 60 272 114 329 65 161 179 197 188 229 257 236 173 261 151 163 103 173 208 220 192 155 214 210 183 202 223
34 39 40 38 38 36 37 39 36 35 35 34 34 75 348 3 11 15 74 108 72 95 55 19 18 57 359 97 119 106 91 40 100 128 171 144 234 139 96 114 313 82 42 85 147 195 129 172 176 139 126 155 204 139 97 194 108 157 173 187 173 177 153 190 187 178 58 88 202 115 249 242 130 119 99 277 179 221 174 167 229 190 188 177 207 198 223
36 37 39 44 43 41 38 38 37 34 30 33 39 51 31 358 12 18 29 98 119 102 39 349 33 57 46 53 42 32 106 158 179 147 172 122 179 171 165 179 180 164 175 162 168 197 161 172 163 159 196 150 190 76 182 162 234 282 140 171 181 176 159 196 214 178 164 171 189 211 216 120 168 141 180 203 209 195 156 128 184 233 165 178 179 218 209
36 36 43 44 45 45 43 42 40 37 32 38 39 44 56 350 8 10 47 59 66 79 113 186 44 90 84 76 60 44 88 96 115 199 142 127 350 74 274 126 138 126 171 119 70 38 357 147 94 124 144 154 60 190 168 136 186 209 7 104 188 203 200 175 188 199 149 196 215 225 187 170 188 173 167 179 204 168 187 151 170 177 237 184 160 208 221
37 40 43 46 49 47 47 45 44 40 38 36 38 52 56 4 4 346 49 74 68 69 45 51 97 85 87 66 78 85 243 149 52 55 354 134 126 357 70 124 165 210 57 33 171 151 168 130 178 147 96 163 155 151 277 191 180 166 179 226 206 230 200 56 114 217 223 255 224 100 37 186 209 283 213 192 194 169 149 163 159 226 192 172 184 205 207
41 48 46 45 44 50 49 49 44 43 41 41 43 55 32 27 4 1 30 60 81 117 58 18 60 34 16 15 342 353 34 8 18 305 240 225 131 123 341 287 144 61 19 229 182 135 173 111 183 145 180 214 141 156 163 231 220 182 159 205 245 243 148 149 186 250 162 244 222 154 195 190 199 209 202 314 240 196 176 177 198 204 164 184 222 185 195
42 45 53 48 51 49 52 50 52 51 45 39 38 37 58 27 4 3 75 97 38 71 111 70 36 36 313 270 288 347 1 348 309 21 22 46 100 144 161 164 163 144 173 222 38 70 48 111 96 114 177 251 153 208 177 181 250 154 186 213 136 274 177 187 194 160 192 233 200 181 202 195 208 177 153 216 219 218 211 215 187 163 169 157 174 145 145
38 58 64 58 50 52 50 57 59 54 50 50 48 57 58 37 339 16 64 57 78 88 94 93 62 352 313 21 23 314 309 343 28 40 45 33 50 104 124 116 48 28 99 101 70 86 104 66 102 134 163 228 79 166 188 209 157 178 199 201 196 161 133 206 186 204 247 330 354 359 75 129 240 248 259 214 185 178 180 166 140 143 136 155 174 201 181
66 51 39 64 60 55 63 69 61 57 57 53 52 55 59 33 21 44 60 305 81 44 34 83 113 340 13 55 340 342 339 352 29 56 51 54 77 68 76 83 90 44 65 51 40 104 64 101 98 163 131 185 119 153 139 56 135 148 208 249 128 108 197 167 117 217 225 220 211 134 147 224 240 222 210 211 210 157 149 138 146 163 163 174 159 161 159
41 30 34 70 66 65 63 57 65 66 63 62 64 64 53 54 6 27 36 31 93 147 136 101 91 177 168 53 349 358 356 8 41 59 63 57 53 62 74 77 75 68 33 80 64 42 62 114 180 170 88 285 83 88 105 101 74 23 267 225 201 185 183 149 187 196 224 222 197 190 194 78 224 207 193 200 164 151 156 183 186 199 206 179 156 161 198
43 85 56 80 77 71 61 64 64 67 68 56 52 56 49 43 20 7 15 16 75 91 96 104 78 49 71 188 4 9 360 30 53 65 69 57 56 60 68 65 77 107 81 63 86 90 88 107 60 125 154 217 93 190 102 184 185 217 218 178 157 231 173 185 194 133 3 247 202 165 142 199 188 192 159 172 176 164 178 203 216 212 194 190 184 182 161
82 90 72 94 100 78 74 81 71 57 50 45 43 44 41 344 1 6 355 27 42 102 92 108 98 144 27 28 360 360 17 27 58 72 71 69 65 60 54 70 54 45 82 112 142 113 157 98 88 1 313 334 119 164 121 202 208 249 287 149 147 106 109 126 152 143 190 129 142 147 116 98 91 118 124 47 106 161 147 175 189 168 95 147 139 323 310
119 149 108 88 101 99 93 90 74 39 44 65 74 54 40 46 308 341 340 7 8 89 94 76 102 125 50 12 67 21 354 45 68 71 60 64 72 68 31 72 52 41 70 24 52 168 94 88 116 109 2 338 73 138 179 172 227 298 239 163 162 135 129 134 98 104 127 112 97 92 83 94 125 91 55 52 51 78 85 70 40 134 144 120 131 174 221
123 123 127 114 126 114 109 100 79 55 55 54 77 154 185 191 304 302 335 350 21 50 61 99 55 15 210 56 312 254 352 43 64 38 28 37 45 29 43 57 97 21 86 95 147 68 49 198 83 161 110 268 74 101 105 140 220 239 145 171 202 158 145 121 106 104 115 143 112 76 78 69 134 121 159 170 75 50 99 99 43 56 79 88 70 50 46
139 106 76 118 107 124 112 103 87 82 83 93 76 62 71 101 73 22 353 1 46 42 86 78 111 174 66 241 358 341 168 43 23 19 52 349 88 44 50 12 35 50 335 66 355 127 280 92 175 90 260 2 110 165 199 227 234 127 166 181 192 132 133 132 126 147 153 192 105 137 174 171 186 148 118 125 118 125 127 126 131 77 80 86 85 66 350
129 146 176 142 139 115 114 112 91 63 34 40 21 15 341 40 38 29 29 61 97 59 69 98 80 80 184 337 73 278 63 110 140 47 64 15 318 53 135 59 318 77 320 110 251 64 329 58 97 148 81 12 194 96 241 221 129 149 160 201 162 98 103 109 132 158 191 131 26 67 146 142 102 111 104 114 112 104 113 124 132 123 167 173 196 209 221
136 136 147 107 100 97 95 77 42 43 114 92 2 287 25 65 63 48 48 94 72 3 41 357 114 88 55 19 70 288 357 69 109 2 98 328 24 128 49 79 336 91 270 93 35 169 125 198 190 86 222 155 93 221 232 114 131 133 137 116 123 105 90 79 203 148 62 38 64 63 82 116 114 119 148 159 149 157 155 151 177 192 236 282 250 188 181
133 138 134 122 116 106 64 38 46 38 16 74 238 113 79 58 55 51 53 61 91 119 85 220 81 141 134 129 145 263 97 54 34 27 151 147 25 349 74 150 74 262 40 77 197 100 171 249 88 242 172 145 225 210 147 127 146 155 159 166 178 138 168 168 135 102 72 58 70 69 70 71 113 159 146 132 119 72 66 100 24 52 215 269 273 285 318
106 105 90 65 41 35 38 206 279 110 206 202 138 89 61 54 5 33 13 26 353 61 118 90 89 234 139 187 96 296 81 151 153 51 11 73 153 42 52 60 160 122 50 319 219 127 226 52 102 192 205 207 228 122 128 145 156 159 195 165 148 120 88 86 119 112 83 52 47 31 32 54 43 40 136 197 159 99 106 203 205 188 220 230 244 250 244
107 95 69 66 51 65 21 352 259 230 145 113 53 37 2 32 55 6 10 24 295 40 348 48 109 285 28 74 132 243 89 274 58 134 57 247 77 320 230 105 229 97 119 226 222 175 93 58 192 217 246 250 283 103 170 154 174 169 172 201 214 189 144 122 125 112 118 87 55 38 43 5 264 263 192 229 198 198 215 218 214 221 229 237 232 233 261
102 80 58 27 86 85 165 240 165 117 96 21 48 73 349 32 62 25 311 309 23 7 284 91 237 98 101 92 280 343 145 157 88 340 129 253 103 294 77 82 262 90 289 65 290 160 115 240 233 238 257 238 260 242 132 159 162 174 181 191 191 202 134 147 161 157 170 188 187 185 175 189 204 227 215 221 230 232 241 244 245 236 230 241 252 246 254
45 66 100 68 105 247 304 144 134 130 43 52 339 95 52 345 82 247 299 49 314 280 61 16 227 130 211 161 137 209 238 91 120 158 165 311 343 147 229 86 277 91 226 165 238 74 139 183 209 210 254 234 239 130 125 151 150 206 204 212 196 145 152 167 196 219 181 204 197 201 204 210 206 202 197 203 209 218 235 238 234 238 234 237 245 243 234
57 74 47 126 230 89 17 309 346 55 64 39 17 3 74 7 336 247 48 34 322 245 119 172 25 36 321 46 49 141 300 77 156 115 103 135 236 86 49 156 246 86 274 187 264 78 158 187 212 216 241 235 162 153 139 109 146 211 225 232 195 158 162 175 200 209 188 244 274 265 234 224 219 211 197 194 195 204 214 218 225 233 238 248 243 235 281
203 173 183 140 88 82 338 29 44 58 29 101 105 52 161 207 17 14 99 130 230 234 320 92 66 178 236 169 194 154 345 175 124 96 111 22 298 118 216 19 12 113 215 210 107 52 160 152 242 243 251 252 153 154 141 163 203 189 228 231 235 198 162 174 204 240 213 210 222 218 218 208 218 225 223 210 225 226 241 253 257 240 224 236 237 242 244
87 79 65 70 58 352 73 55 310 102 115 53 56 21 350 52 212 159 251 277 304 89 255 53 226 212 330 46 15 56 168 12 85 316 82 187 7 53 85 47 105 95 238 33 79 196 169 185 230 246 250 252 229 195 190 177 185 195 217 231 222 227 201 197 201 217 217 206 229 240 262 178 215 229 214 186 187 191 250 220 233 252 255 238 234 244 260
42 39 44 339 50 295 82 14 255 59 359 41 109 161 208 84 313 47 30 264 230 336 243 123 228 120 214 290 147 182 30 359 100 85 41 302 77 189 161 158 202 239 51 30 330 167 210 215 221 234 250 274 289 229 210 202 180 193 255 262 247 257 228 225 198 195 256 238 67 60 89 86 101 48 45 58 124 200 229 321 21 13 17 32 30 13 338
86 17 50 27 37 262 67 301 330 115 189 228 143 184 141 161 222 163 185 239 98 220 306 62 111 109 173 253 51 341 124 202 301 97 240 128 58 301 118 231 242 34 87 202 67 356 349 299 264 253 273 261 243 239 212 192 178 173 197 223 216 225 205 194 215 208 211 90 172 98 98 73 86 65 54 57 39 57 81 44 341 11 8 6 359 11 2
76 162 108 90 199 300 119 202 63 36 296 133 185 191 168 215 159 206 240 99 142 170 120 195 167 124 120 282 125 211 39 79 64 232 184 51 101 258 227 131 62 69 328 184 150 179 206 223 246 253 238 225 229 236 221 207 209 206 112 168 224 217 210 202 181 111 151 141 124 105 104 84 89 93 68 5 44 49 49 39 26 29 346 8 350 346 323
61 10 94 133 92 268 79 125 234 202 185 187 210 184 182 179 184 178 208 67 87 205 121 107 119 168 142 229 72 355 43 49 124 260 72 59 180 247 14 87 234 205 163 226 208 231 260 257 243 240 236 230 243 238 232 213 174 196 205 193 137 243 289 232 199 172 181 124 110 101 91 86 81 80 109 84 30 30 27 30 22 18 34 2 321 341 331
140 201 84 98 210 170 117 240 176 58 339 221 273 204 231 163 97 61 351 4 264 59 111 104 65 322 27 296 82 173 158 176 96 300 142 195 30 40 2 70 274 260 163 164 217 221 221 243 229 233 238 214 203 200 43 61 280 231 262 299 312 324 345 7 55 47 49 75 82 89 76 62 49 63 73 182 322 8 6 3 345 356 6 358 358 356 348
130 106 148 187 195 104 144 313 94 116 319 322 309 48 90 97 137 241 305 345 74 137 178 112 194 88 312 270 94 187 321 273 105 248 72 30 108 200 183 180 207 230 268 175 206 212 209 215 218 216 238 64 50 73 70 34 16 29 19 8 356 349 40 75 76 66 61 58 59 66 55 66 84 70 57 46 44 321 333 342 346 342 0 8 352 341 333
53 336 36 65 52 343 267 3 76 184 313 336 31 58 344 86 88 336 318 21 298 310 93 104 42 99 230 89 25 358 250 301 148 24 60 342 219 222 68 41 252 178 236 225 215 230 230 314 335 357 32 60 38 31 29 15 24 37 20 18 15 36 40 51 55 50 55 55 51 56 67 68 58 54 53 6 297 305 323 332 349 2 348 339 312 311 301
5 68 105 24 154 211 140 149 172 202 264 245 178 159 62 124 144 91 358 56 328 71 51 124 195 89 83 44 77 43 268 217 66 129 157 191 196 101 157 184 241 212 225 218 166 28 17 335 360 34 35 40 33 14 14 5 21 16 9 18 7 21 36 46 49 45 36 24 26 43 37 24 343 261 273 303 312 315 342 343 13 352 325 315 298 284 299
81 89 196 259 49 76 90 109 66 115 171 191 133 288 60 57 325 275 310 48 79 118 179 190 78 75 63 166 218 195 359 46 211 225 18 286 175 133 206 199 228 224 292 344 8 351 6 11 28 36 38 21 5 334 321 353 33 24 20 12 13 22 22 22 28 22 9 14 29 36 355 339 333 320 268 65 33 48 24 315 313 335 319 304 293 284 258